Showing default

BLACKJACK ACES-3, 56950

Orbit data source: Space-Track

BLACKJACK ACES-3, 56950 is a payload satellite owned by DARPA (US) in SSO that was launched on Mon, 12 Jun 2023 UTC via an FALCON 9 launch vehicle from the Air Force Western Test Range (AFWTR). Payload-class satellites include a variety of spacecraft equipped with specific instruments for various scientific and technological missions. These include communications satellites like Starlink; space stations such as the ISS; scientific satellites like the Hubble; Earth observation satellites from companies like Planet Labs, Umbra, and HawkEye 360; GPS; miniature CubeSats for education and research; and military/defense satellites.

Loading next visibility...
Identifier
56950, 2023-084U
Orbit
SSO
Country
Flag of USUS
Related business
Manufacturer
BLCAN/LMSS
Mission
Operational Defense Communications
Bus & Motor
X-SAT, Unknown motor
Mass
~200 kg wet, ~200 kg dry
Launch date (UTC)
2023-06-12 (3 years ago)
Launch vehicle
FALCON 9
Launch site
Air Force Western Test Range (AFWTR)
Object type
Payload
Rocket body
Debris
Shape & HBR
Box, 3.6 m
Radar Cross Section
0.875 m², Large (>1 m²)

Expand to show TLE details & history
Last TLE update: 1 day ago

TLE from 1 day ago
0 BLACKJACK ACES-3
1 56950U 23084U   26145.36854076  .00004943  00000-0  24426-3 0  9990
2 56950  97.6177 280.3935 0004045  90.1903 269.9794 15.18320627163707
Epoch: 2026-05-25T08:50Z
TLE epoch observation values (Epoch: 2026-05-25T08:50:41.921Z)
Latitude
-0.00005°
Longitude
-95.2385°
Altitude
514 km
Speed
7.607 km/s
True Right ascension
18h 41m 34s
True Declination
0° 00' 00"
Sunlit
Object was in full shadow at epoch
Visualization orbit readout
Latitude
Unknown
Longitude
Unknown
Altitude
Unknown
Speed
Unknown
Apparent Right ascension
Unknown
Apparent Declination
Unknown
Sunlit
N/A
Visualization observer readout
Local Sidereal Time
19:52:27
Azimuth
Unknown
Elevation
Unknown
Doppler factor
Unknown
Orbital elements
Apogee altitude
510.678 km
Perigee altitude
505.108 km
Semi-major axis
6,886.03 km
Eccentricity
0.0004
Inclination
97.6177°
RAAN
280.3935°
Arg. of periapsis
90.1903°
True anomaly
269.93305°
Mean anomaly
269.9794°
Eccentric anomaly
269.95622°
Mean motion
3.7983 °/min
Orbital period
94.78 mins
BSTAR
0.00024426
Loading maneuver chart data...
Computing Atmospheric mass density...
Loading historical data...
Loading historical data...
Loading historical data...
Loading historical data...
Loading historical data...
Loading historical data...
Loading historical data...

Documentation

Showing up to 5 results
|